Flag for Japan Weather past 2 weeks in Nagoya, Japan

Now
63 °F

Passing clouds.


Feels Like: 63 °F
Forecast: 56 / 74 °F
Wind: 5 mph from Northeast

Location: Nagoya Airport

Current Time: Oct 26, 2014 at 4:53:30 AM

Latest Report: Oct 26, 2014 at 4:30 AM


Visibility: N/A

Pressure: 30.12 "Hg

Humidity: 77%

Dew point: 55 °F

Location of NagoyaLocation

Historic Weather in Nagoya — Graph

°F

Nagoya temperature yesterday

Maximum temperature yesterday: 70 °F (at 2:00 PM)
Minimum temperature yesterday: 57 °F (at 3:30 AM)
Average temperature yesterday: 64 °F

Past Weeks' High & Low Weather Summary

 TemperatureHumidityPressure
High75 °F (Oct 12, 11:00 AM)100% (Oct 13, 5:00 PM)30.33 "Hg (Oct 13, 5:00 PM)
Low54 °F (Oct 18, 3:30 AM)20% (Oct 18, 3:00 PM)29.09 "Hg (Oct 13, 10:00 PM)
Average65 °F74%30.02 "Hg
* Reported Oct 11 3:00 AM — Oct 26 3:30 AM, Nagoya, Weather by CustomWeather, © 2014

Note: Actual official high and low records may vary slightly from our data, if they occured in-between our weather recording intervals... More about our weather records

Advertising

Nagoya weather history for previous 24 hours

 ConditionsComfort  
Time TempWeatherWind HumidityBarometerVisibility
3:30 AM
Oct 26
64 °FClear.9 mph78%30.12 "Hg10 mi
3:00 AM64 °FClear.9 mph78%30.12 "Hg10 mi
2:30 AM64 °FPassing clouds.8 mph78%30.15 "HgN/A
2:00 AM64 °FPartly cloudy.7 mph83%30.15 "HgN/A
1:30 AM64 °FPassing clouds.6 mph78%30.15 "HgN/A
1:00 AM64 °FPassing clouds.6 mph78%30.15 "HgN/A
12:30 AM64 °FPassing clouds.3 mph78%30.18 "HgN/A
12:00 AM64 °FPartly cloudy.7 mph78%30.15 "HgN/A
11:30 PM
Oct 25
64 °FPassing clouds.9 mph83%30.18 "HgN/A
11:00 PM66 °FPartly cloudy.7 mph78%30.18 "HgN/A
10:30 PM68 °FPartly cloudy.7 mph64%30.18 "HgN/A
10:00 PM64 °FPartly cloudy.6 mph78%30.18 "HgN/A
9:30 PM64 °FPassing clouds.7 mph78%30.18 "HgN/A
9:00 PM68 °FPartly cloudy.6 mph69%30.18 "HgN/A
8:30 PM68 °FPassing clouds.5 mph73%30.18 "HgN/A
8:00 PM68 °FPartly cloudy.5 mph73%30.18 "HgN/A
7:30 PM68 °FPartly cloudy.3 mph73%30.18 "HgN/A
7:00 PM68 °FPassing clouds.3 mph78%30.18 "HgN/A
6:30 PM68 °FPassing clouds.2 mph73%30.15 "HgN/A
6:00 PM68 °FPassing clouds.5 mph73%30.15 "HgN/A
5:30 PM68 °FPassing clouds.3 mph69%30.15 "HgN/A
5:00 PM68 °FPartly sunny.1 mph69%30.15 "Hg6 mi
4:30 PM68 °FPartly sunny.2 mph69%30.15 "HgN/A
4:00 PM68 °FPartly sunny.3 mph69%30.15 "HgN/A
3:30 PM68 °FPartly sunny.3 mph64%30.15 "HgN/A
3:00 PM68 °FBroken clouds.2 mph64%30.15 "HgN/A
2:30 PM68 °FPartly sunny.2 mph64%30.15 "HgN/A
2:00 PM70 °FScattered clouds.6 mph64%30.15 "HgN/A
1:30 PM68 °FBroken clouds.8 mph69%30.15 "HgN/A
1:00 PM68 °FPartly sunny.7 mph64%30.15 "HgN/A
12:30 PM68 °FPassing clouds.7 mph69%30.15 "HgN/A
12:00 PM68 °FPassing clouds.7 mph69%30.18 "HgN/A
11:30 AM68 °FPassing clouds.6 mph69%30.21 "HgN/A
11:00 AM66 °FPassing clouds.6 mph73%30.21 "HgN/A
10:30 AM66 °FPassing clouds.6 mph68%30.21 "HgN/A
10:00 AM64 °FScattered clouds.8 mph73%30.21 "HgN/A
9:30 AM64 °FScattered clouds.3 mph73%30.21 "HgN/A
9:00 AM64 °FPartly sunny.2 mph78%30.21 "HgN/A
8:30 AM63 °FPartly sunny.6 mph77%30.21 "HgN/A
8:00 AM61 °FScattered clouds.7 mph83%30.21 "HgN/A
7:30 AM61 °FPartly sunny.7 mph83%30.21 "HgN/A
7:00 AM59 °FPassing clouds.7 mph88%30.18 "HgN/A
6:30 AM57 °FPassing clouds.7 mph94%30.18 "HgN/A
6:00 AM57 °FPassing clouds.7 mph94%30.18 "HgN/A
5:30 AM57 °FPassing clouds.5 mph88%30.18 "HgN/A
5:00 AM57 °FPassing clouds.6 mph88%30.18 "HgN/A
4:30 AM57 °FPassing clouds.7 mph88%30.18 "HgN/A
4:00 AM57 °FPassing clouds.8 mph88%30.18 "HgN/A
Weather by CustomWeather, © 2014

See weather overviewHow to use our weather pages